Poughkeepsie, NY

11:17 PM EST on January 22, 2018 (GMT -0500)
Dutchess County

Weather History for KPOU - October, 2010

Change the Weather History Date:

Wednesday, October 13, 2010

  Actual Average Record
Temperature  
Mean Temperature 49 °F 52 °F  
Max Temperature 64 °F 64 °F 84 °F (1954)
Min Temperature 34 °F 40 °F 24 °F (1987)
Degree Days  
Heating Degree Days 16 13  
Month to date heating degree days 123 144  
Since 1 July heating degree days 206 284  
Cooling Degree Days 0 0  
Month to date cooling degree days 0 0  
Year to date cooling degree days 910 668  
Moisture  
Dew Point 39 °F    
Average Humidity 76    
Maximum Humidity 100    
Minimum Humidity 37    
Precipitation  
Precipitation 0.00 in 0.15 in 1.25 in (2005)
Month to date precipitation 0.79 1.94  
Year to date precipitation 28.84 37.00  
Sea Level Pressure  
Sea Level Pressure 30.01 in    
Wind  
Wind Speed 0 mph (NNE)    
Max Wind Speed 8 mph    
Max Gust Speed 10 mph    
Visibility 10 miles    
Events      
T = Trace of Precipitation, MM = Missing Value Source: NWS Daily Summary

Daily Weather History Graph

Daily Weather History Graph

Search for Another Location

Airport or City:

Trip Planner

Search our weather history database for the weather conditions in past years. The results will help you decide how hot, cold, wet, or windy it might be!

Date:

Astronomy

Oct. 13, 2010 Rise Set
Actual Time 7:05 AM EDT 6:17 PM EDT
Civil Twilight 6:37 AM EDT 6:45 PM EDT
Nautical Twilight 6:05 AM EDT 7:17 PM EDT
Astronomical Twilight 5:33 AM EDT 7:49 PM EDT
Moon 1:27 PM EDT (10/13) 10:50 PM EDT (10/13)
Length of Visible Light 12h 08m
Length of Day
11h 12m
Waxing Crescent, 38% of the Moon is Illuminated
Oct 13
Waxing Crescent
Oct 14
First Quarter
Oct 22
Full
Oct 30
Last Quarter
Nov 6
New

Hourly Weather History & Observations

Time (EDT) Temp. Dew Point Humidity Pressure Visibility Wind Dir Wind Speed Gust Speed Precip Events Conditions
12:53 AM 41.0 °F 39.0 °F 93% 29.95 in 10.0 mi Calm Calm - N/A   Clear
1:53 AM 39.9 °F 39.0 °F 97% 29.97 in 10.0 mi Calm Calm - N/A   Clear
2:53 AM 39.0 °F 37.9 °F 96% 29.98 in 10.0 mi Calm Calm - N/A   Clear
3:53 AM 37.9 °F 37.0 °F 97% 29.99 in 10.0 mi Calm Calm - N/A   Clear
4:53 AM 37.0 °F 36.0 °F 96% 29.99 in 10.0 mi Calm Calm - N/A   Clear
5:53 AM 37.0 °F 35.1 °F 93% 30.01 in 10.0 mi Calm Calm - N/A   Clear
6:53 AM 35.1 °F 34.0 °F 96% 30.02 in 10.0 mi Calm Calm - N/A   Clear
7:53 AM 37.0 °F 35.1 °F 93% 30.04 in 10.0 mi Calm Calm - N/A   Clear
8:53 AM 44.1 °F 37.9 °F 79% 30.06 in 10.0 mi Calm Calm - N/A   Clear
9:53 AM 48.9 °F 37.9 °F 66% 30.07 in 10.0 mi NNE 5.8 mph - N/A   Clear
10:53 AM 53.1 °F 39.0 °F 59% 30.06 in 10.0 mi NNE 4.6 mph - N/A   Unknown
11:53 AM 55.0 °F 39.0 °F 55% 30.05 in 10.0 mi Calm Calm - N/A   Clear
12:53 PM 57.0 °F 39.9 °F 53% 30.03 in 10.0 mi Calm Calm - N/A   Clear
1:53 PM 59.0 °F 39.0 °F 48% 30.01 in 10.0 mi Calm Calm - N/A   Clear
2:53 PM 62.1 °F 39.9 °F 44% 29.98 in 10.0 mi Calm Calm - N/A   Clear
3:53 PM 63.0 °F 37.0 °F 38% 29.97 in 10.0 mi Calm Calm - N/A   Clear
4:53 PM 64.0 °F 37.9 °F 38% 29.97 in 10.0 mi Calm Calm - N/A   Clear
5:53 PM 59.0 °F 41.0 °F 51% 29.97 in 10.0 mi Calm Calm - N/A   Clear
6:53 PM 51.1 °F 43.0 °F 74% 29.99 in 10.0 mi Calm Calm - N/A   Clear
7:53 PM 46.9 °F 43.0 °F 86% 30.00 in 10.0 mi Calm Calm - N/A   Clear
8:53 PM 45.0 °F 42.1 °F 90% 30.01 in 10.0 mi Calm Calm - N/A   Clear
9:53 PM 43.0 °F 41.0 °F 93% 30.01 in 10.0 mi Calm Calm - N/A   Clear
10:53 PM 42.1 °F 39.9 °F 92% 30.02 in 10.0 mi Calm Calm - N/A   Clear
11:53 PM 41.0 °F 39.0 °F 93% 30.02 in 10.0 mi Calm Calm - N/A   Clear